STARLINK-36880

Last updated on Fri Mar 27 2026 00:02:06 GMT+0000 (Coordinated Universal Time)

1 67976U 26038R 26085.01478732 .00070531 00000+0 12859-2 0 9999 2 67976 97.2834 95.7764 0001031 98.7648 261.3720 15.49211581 5738
UTC large
Height (km)
Speed (km/s)
/
Latitude / Longitude
Inclination (degrees)
Orbital Period (minutes)
Azimuth
Elevation
Range (km)
Doppler Factor

Next 0 passes for location: London (51.5072 / 0.1276)

Sorry there are no passes over London.